SCP
0 0 0 0 0 0 0 0 0 0 0 0 0 0 0 0 0 0 0 0 0 0 0 0 0 0 0 0 0 0 0 0 0 0 0 0 0 0 0 0 0 0 0 0
0 0 0 0 0 0 0 0 0 0 0 0 0 0 0 0 0 0 0 0 0 0 0 0 0 0 0 0 0 0 0 0 0 0 0 0 0 0 0 0 0 0 0 0
0 0 0 0 0 0 0 0 0 0 0 0 0 0 0 0 0 0 0 0 0 0 0 0 0 0 0 0 0 0 0 0 0 0 0 0 0 0 0 0 0 0 0 0
0 0 0 0 0 0 0 0 0 0 0 0 0 0 0 0 0 0 0 0 0 0 0 0 0 0 0 0 0 0 0 0 0 0 0 0 0 0 0 0 0 0 0 0
0 0 0 0 0 0 0 0 0 0 0 0 0 0 0 0 0 0 0 0 0 0 0 0 0 0 0 0 0 0 0 0 0 0 0 0 0 0 0 0 0 0 0 0
0 0 0 0 0 0 0 0 0 0 0 0 0 0 0 0 0 0 0 0 0 0 0 0 0 0 0 0 0 0 0 0 0 0 0 0 0 0 0 0 0 0 0 0
0 0 0 0 0 0 0 0 0 0 0 0 0 0 0 0 0 0 0 0 0 0 0 0 0 0 0 0 0 0 0 0 0 0 0 0 0 0 0 0 0 0 0 0
0 0 0 0 0 0 0 0 0 0 0 0 0 0 0 0 0 0 0 0 0 0 0 0 0 0 0 0 0 0 0 0 0 0 0 0 0 0 0 0 0 0 0 0
0 0 0 0 0 0 0 0 0 0 0 0 0 0 0 0 0 0 0 0 0 0 0 0 0 0 0 0 0 0 0 0 0 0 0 0 0 0 0 0 0 0 0 0
0 0 0 0 0 0 0 0 0 0 0 0 0 0 0 0 0 0 0 0 0 0 0 0 0 0 0 0 0 0 0 0 0 0 0 0 0 0 0 0 0 0 0 0
0 0 0 0 0 0 0 0 0 0 0 0 0 0 0 0 0 0 0 0 0 0 0 0 0 0 0 0 0 0 0 0 0 0 0 0 0 0 0 0 0 0 0 0
0 0 0 0 0 0 0 0 0 0 0 0 0 0 0 0 0 0 0 0 0 0 0 0 0 0 0 0 0 0 0 0 0 0 0 0 0 0 0 0 0 0 0 0
0 0 0 0 0 0 0 0 0 0 0 0 0 0 0 0 0 0 0 0 0 0 0 0 0 0 0 0 0 0 0 0 0 0 0 0 0 0 0 0 0 0 0 0
0 0 0 0 0 0 0 0 0 0 0 0 0 0 0 0 0 0 0 0 0 0 0 0 0 0 0 0 0 0 0 0 0 0 0 0 0 0 0 0 0 0 0 0
0 0 0 0 0 0 0 0 0 0 0 0 0 0 0 0 0 0 0 0 0 0 0 0 0 0 0 0 0 0 0 0 0 0 0 0 0 0 0 0 0 0 0 0
0 0 0 0 0 0 0 0 0 0 0 0 0 0 0 0 0 0 0 0 0 0 0 0 0 0 0 0 0 0 0 0 0 0 0 0 0 0 0 0 0 0 0 0
0 0 0 0 0 0 0 0 0 0 0 0 0 0 0 0 0 0 0 0 0 0 0 0 0 0 0 0 0 0 0 0 0 0 0 0 0 0 0 0 0 0 0 0
0 0 0 0 0 0 0 0 0 0 0 0 0 0 0 0 0 0 0 0 0 0 0 0 0 0 0 0 0 0 0 0 0 0 0 0 0 0 0 0 0 0 0 0
0 0 0 0 0 0 0 0 0 0 0 0 0 0 0 0 0 0 0 0 0 0 0 0 0 0 0 0 0 0 0 0 0 0 0 0 0 0 0 0 0 0 0 0
0 0 0 0 0 0 0 0 0 0 0 0 0 0 0 0 0 0 0 0 0 0 0 0 0 0 0 0 0 0 0 0 0 0 0 0 0 0 0 0 0 0 0 0
0 0 0 0 0 0 0 0 0 0 0 0 0 0 0 0 0 0 0 0 0 0 0 0 0 0 0 0 0 0 0 0 0 0 0 0 0 0 0 0 0 0 0 0
0 0 0 0 0 0 0 0 0 0 0 0 0 0 0 0 0 0 0 0 0 0 0 0 0 0 0 0 0 0 0 0 0 0 0 0 0 0 0 0 0 0 0 0
0 0 0 0 0 0 0 0 0 0 0 0 0 0 0 0 0 0 0 0 0 0 0 0 0 0 0 0 0 0 0 0 0 0 0 0 0 0 0 0 0 0 0 0
0 0 0 0 0 0 0 0 0 0 0 0 0 0 0 0 0 0 0 0 0 0 0 0 0 0 0 0 0 0 0 0 0 0 0 0 0 0 0 0 0 0 0 0
0 0 0 0 0 0 0 0 0 0 0 0 0 0 0 0 0 0 0 0 0 0 0 0 0 0 0 0 0 0 0 0 0 0 0 0 0 0 0 0 0 0 0 0
0 0 0 0 0 0 0 0 0 0 0 0 0 0 0 0 0 0 0 0 0 0 0 0 0 0 0 0 0 0 0 0 0 0 0 0 0 0 0 0 0 0 0 0
Wind_Speed
3 4 5 9 9 7 4 4 6 7 5 5 8 10 10 8 6 8 8 8 7 6 3 3 4 6 6 6 7 6 6 5 5 3 3 3 2 1 1 1 1 1 1 1
3 6 11 7 5 5 5 5 6 6 3 3 6 11 10 9 10 13 14 12 10 7 5 4 5 4 5 5 6 6 6 5 5 4 3 2 2 1 1 1 2 2 1 1
10 8 7 7 6 6 6 5 5 5 4 3 4 9 7 6 5 7 10 11 10 12 11 7 6 5 5 5 5 6 6 6 5 4 4 3 3 3 2 2 2 2 2 1
7 7 4 5 7 7 6 6 5 3 1 5 1 6 8 4 3 7 10 10 10 10 9 8 7 6 5 5 5 6 6 6 5 5 5 4 3 2 1 0 1 3 3 2
8 6 8 9 8 8 7 4 2 1 2 3 3 4 10 2 6 10 11 12 11 11 12 10 9 7 6 5 5 5 6 5 4 5 5 5 3 2 1 1 2 3 3 3
7 5 7 9 5 5 4 3 4 4 3 4 6 7 10 6 10 9 11 12 12 12 11 10 8 7 5 5 5 5 6 5 4 5 5 5 5 3 2 1 2 2 2 2
4 4 3 4 5 2 4 5 2 3 1 8 4 5 12 9 8 11 17 17 14 12 12 12 11 9 8 7 6 6 6 5 4 5 4 4 4 3 3 1 0 1 2 2
7 6 7 7 9 8 6 9 7 6 5 6 3 8 10 5 5 6 10 13 13 12 12 13 13 11 9 8 7 7 7 5 5 5 4 3 3 2 1 1 1 1 1 2
9 8 3 6 5 12 7 6 7 4 2 4 7 7 8 2 2 4 9 12 14 14 14 13 12 11 10 9 8 8 7 6 5 5 4 3 3 2 1 1 1 1 2 2
9 5 2 1 4 3 7 7 5 5 5 5 7 6 6 5 4 5 9 13 14 13 12 12 12 11 10 9 7 7 7 7 5 5 4 3 2 2 1 1 1 2 3 3
8 6 2 2 7 10 6 5 5 5 5 5 4 8 6 6 7 9 11 13 15 15 15 13 12 11 9 8 8 7 7 6 5 5 3 3 2 1 1 1 2 3 3 3
8 6 4 7 5 5 7 8 8 6 6 5 4 9 5 4 5 7 9 10 11 13 12 11 11 10 9 9 8 8 7 6 5 5 4 3 2 1 1 2 3 3 4 4
11 8 4 1 2 3 5 6 8 5 3 4 5 8 4 2 1 4 7 8 9 10 10 9 10 10 10 10 9 8 7 6 5 4 4 2 2 2 3 4 4 4 4 5
10 7 8 11 8 8 7 7 9 8 5 6 9 8 6 4 4 5 6 8 9 9 10 10 10 10 9 9 8 8 6 6 5 4 3 3 3 3 4 4 4 5 5 6
7 6 6 6 5 6 7 8 10 12 12 10 9 10 11 8 8 8 6 6 8 8 10 11 11 9 8 8 7 7 6 5 5 4 3 4 4 4 4 4 5 5 6 6
5 6 5 4 5 6 6 7 9 11 10 11 9 11 9 5 4 5 6 8 9 10 10 10 10 10 10 9 8 7 6 5 4 4 4 4 4 4 5 5 5 6 6 7
6 7 6 4 3 2 7 9 10 7 8 10 14 15 6 5 7 8 9 9 10 9 9 10 10 10 9 9 8 7 6 4 4 3 3 4 4 5 5 5 5 6 7 7
9 7 5 4 3 8 10 6 8 9 9 10 8 6 5 7 4 2 5 8 8 8 8 8 8 8 7 6 6 5 4 4 3 3 4 4 4 5 6 6 6 7 6 7
5 8 5 5 5 7 7 5 6 8 8 7 9 7 3 4 3 2 2 4 6 7 7 7 7 7 7 6 6 5 3 3 2 4 5 5 5 6 6 7 7 7 6 7
3 4 6 5 5 8 9 5 3 4 6 6 7 7 7 7 3 5 3 4 6 7 7 7 7 7 6 5 5 5 3 3 4 5 5 5 5 6 7 7 8 7 6 8
4 3 5 6 6 8 8 3 6 6 9 4 7 8 10 9 6 4 6 5 6 7 7 8 8 6 5 5 4 4 3 4 5 5 5 5 6 6 7 7 6 7 7 8
11 8 7 6 6 11 6 7 9 9 3 4 5 6 8 5 4 6 7 7 8 7 7 7 6 4 3 4 4 3 4 5 4 4 5 6 6 6 6 6 7 7 7 8
9 11 9 11 10 6 7 9 6 5 5 5 6 5 8 7 6 6 6 7 7 7 6 5 5 4 2 2 3 4 4 4 4 5 6 6 7 6 6 6 7 7 6 7
5 4 5 5 7 5 5 4 4 5 6 5 6 7 9 8 8 8 8 7 6 5 5 4 4 3 2 2 3 4 4 4 4 6 6 6 6 7 6 6 6 6 6 7
8 8 6 6 5 1 4 7 6 5 4 5 5 6 8 9 8 8 8 7 6 5 4 4 4 3 3 3 4 4 4 4 5 6 6 6 6 7 7 6 6 8 7 9
6 9 10 9 9 8 8 7 8 8 7 7 7 5 5 8 9 8 7 6 5 5 4 3 3 3 3 4 5 5 4 4 5 6 6 6 5 6 6 7 8 12 14 20
Wind_Direction
156 122 198 211 202 206 214 232 262 261 253 205 230 249 253 235 201 186 184 178 168 159 146 109 97 99 99 98 104 109 113 115 115 105 106 104 96 66 48 37 41 44 30 23
111 223 224 214 202 207 225 247 266 284 288 219 252 263 257 228 205 192 184 180 172 159 147 130 115 107 110 116 114 114 118 119 117 118 121 123 121 104 76 11 10 4 357 346
187 219 216 205 214 215 227 224 238 257 307 311 296 293 274 253 206 185 182 178 172 165 160 154 139 129 125 130 135 129 125 119 115 114 102 81 63 44 27 8 349 337 342 338
219 236 213 202 211 194 237 228 218 239 259 282 254 286 283 253 203 189 184 180 179 169 159 157 152 149 149 150 139 129 125 119 117 115 115 121 124 132 198 293 332 341 355 349
224 209 198 210 214 188 214 207 196 212 200 279 249 235 278 232 223 215 195 188 184 174 166 163 162 158 154 149 142 134 124 118 118 115 122 121 121 134 115 46 22 2 351 353
222 219 195 201 194 180 162 83 42 46 81 269 224 195 271 226 216 205 194 191 184 175 167 160 156 148 146 147 141 138 130 125 124 121 123 129 132 130 107 62 20 352 340 340
233 236 212 152 127 125 124 106 4 322 311 250 214 200 250 246 222 196 188 187 183 175 167 163 162 164 162 161 158 152 143 139 136 129 129 137 140 138 137 148 218 332 329 322
194 238 211 187 171 171 178 159 178 212 230 273 230 223 252 266 261 202 179 174 173 176 175 174 173 171 169 169 166 160 156 153 151 143 143 141 139 136 150 176 199 259 270 280
184 228 239 202 178 149 158 195 182 156 255 271 273 276 297 283 30 137 152 163 179 183 182 179 176 174 173 172 172 168 163 159 160 155 146 141 140 141 163 214 243 275 281 287
163 204 244 193 116 158 160 164 135 158 198 242 274 268 257 259 224 175 174 182 186 184 184 182 179 178 177 173 169 165 163 164 163 159 157 153 160 171 188 221 291 296 298 303
159 173 210 174 186 185 163 174 175 176 184 182 251 268 235 239 213 197 198 193 188 187 187 185 183 179 172 165 164 164 165 159 161 162 159 153 174 193 205 265 280 285 288 296
163 148 197 231 236 195 182 187 167 177 222 197 201 267 276 271 226 199 200 198 193 191 187 182 176 170 170 170 169 168 167 165 168 165 160 170 189 212 259 276 279 280 282 285
158 149 154 291 262 194 204 205 193 176 155 177 190 261 301 339 204 205 202 198 192 186 180 174 172 175 176 175 172 170 169 169 167 161 163 182 214 242 260 269 275 276 278 285
147 149 177 194 204 185 200 208 192 179 200 219 223 247 279 270 246 226 211 200 190 186 181 177 178 179 175 171 169 167 170 169 166 164 176 206 233 244 254 263 269 273 276 282
140 173 198 212 211 175 199 206 193 199 208 212 231 229 243 239 229 225 212 193 182 183 183 182 180 175 169 165 165 166 167 167 166 171 196 229 244 252 259 267 270 274 276 276
135 168 182 218 216 205 221 222 207 213 220 228 247 258 242 240 216 210 200 191 192 192 187 181 174 169 169 169 167 164 167 172 167 183 217 239 251 260 264 267 270 274 276 276
156 149 158 217 219 193 245 221 207 208 209 200 227 245 234 216 215 211 202 198 198 191 180 175 173 171 170 169 164 167 172 169 173 200 230 247 253 261 264 267 271 272 274 274
151 149 150 167 157 223 238 220 203 214 233 217 228 244 220 216 208 206 196 193 191 178 169 165 158 155 154 152 151 152 156 166 187 219 243 252 255 260 265 268 269 271 269 271
149 145 142 154 204 259 284 241 190 199 252 226 221 229 184 124 80 333 269 187 179 169 157 150 148 144 142 146 148 145 158 176 207 237 249 253 253 258 266 269 271 271 272 274
93 125 137 153 185 225 238 224 174 137 262 242 191 186 168 138 163 247 193 143 133 128 130 132 130 126 134 147 143 146 177 203 233 244 250 254 255 257 263 267 271 271 271 273
148 147 165 175 210 249 247 195 124 175 239 214 177 175 170 184 198 175 135 126 129 128 129 128 127 132 148 150 145 167 201 230 241 249 258 263 262 261 263 266 268 274 277 281
174 176 186 169 202 246 220 149 184 212 192 165 169 172 174 174 130 132 136 136 135 130 127 128 129 138 151 153 156 195 233 244 254 261 266 268 268 269 274 271 275 276 279 284
196 190 184 191 210 225 184 195 206 166 170 180 171 170 154 149 157 152 147 145 141 137 135 132 137 144 161 176 179 218 247 260 267 271 270 272 274 272 271 272 278 282 279 280
235 175 161 217 246 233 216 213 193 184 183 177 166 159 157 160 161 156 152 150 145 142 142 137 138 154 200 224 227 234 256 267 268 271 274 276 278 279 276 272 271 276 279 281
197 169 178 219 244 216 234 214 198 179 160 148 146 159 164 155 157 159 158 157 153 145 143 144 158 189 225 246 257 260 264 269 271 273 275 277 274 275 279 274 266 276 265 271
188 173 179 209 204 187 216 209 181 173 179 169 154 150 156 159 156 151 152 151 147 146 146 156 182 214 241 255 266 271 269 263 266 274 275 274 275 276 277 284 288 282 285 293